Weather History for Lago Vista, TX

Change the Weather History Date:

Wednesday, October 3, 2012

  Actual Average (KATT) Record (KATT)
Temperature  
Mean Temperature 72 °F 75 °F  
Max Temperature 82 °F 86 °F 97 °F (1979)
Min Temperature 62 °F 64 °F 48 °F (1961)
Degree Days  
Heating Degree Days 0 0  
Month to date heating degree days 0  
Since 1 July heating degree days 2  
Cooling Degree Days 7 10  
Month to date cooling degree days 31  
Year to date cooling degree days 2875  
Growing Degree Days 22 (Base 50)    
Moisture  
Dew Point 53 °F    
Average Humidity 53    
Maximum Humidity 72    
Minimum Humidity 32    
Precipitation  
Precipitation 0.00 in 0.11 in 2.08 in (1892)
Month to date precipitation 0.31  
Year to date precipitation 25.39  
Snow  
Snow 0.00 in - - ()
Month to date snowfall  
Since 1 July snowfall  
Since 1 September snowfall  
Snow Depth -    
Sea Level Pressure  
Sea Level Pressure 30.00 in    
Wind  
Wind Speed 4 mph (SSE)    
Max Wind Speed 12 mph    
Max Gust Speed 18 mph    
Visibility 10 miles    
Events      
T = Trace of Precipitation, MM = Missing Value Source: NWS Daily Summary

Daily Weather History Graph

Daily Weather History Graph

Search for Another Location

Airport:

Trip Planner

Search our weather history database for the weather conditions in past years. The results will help you decide how hot, cold, wet, or windy it might be!

Date:

Astronomy

Oct. 03, 2012 Rise Set
Actual Time 7:26 AM CDT 7:14 PM CDT
Civil Twilight 7:02 AM CDT 7:38 PM CDT
Nautical Twilight 6:34 AM CDT 8:05 PM CDT
Astronomical Twilight 6:07 AM CDT 8:33 PM CDT
Moon 9:24 PM CDT (10/3) 10:34 AM CDT (10/3)
Length of Visible Light 12h 35m
Length of Day
11h 47m
Waning Gibbous, 88% of the Moon is Illuminated
Oct 3
Waning Gibbous
Oct 8
Last Quarter
Oct 15
New
Oct 21
First Quarter
Oct 29
Full

Hourly Weather History & Observations

Time (CDT) Temp. Dew Point Humidity Pressure Visibility Wind Dir Wind Speed Gust Speed Precip Events Conditions
12:15 AM 66.2 °F 53.6 °F 64% 30.00 in 10.0 mi Calm Calm - N/A   Clear
12:35 AM 66.2 °F 53.6 °F 64% 30.00 in 10.0 mi South 3.5 mph - N/A   Clear
12:55 AM 66.2 °F 53.6 °F 64% 30.00 in 10.0 mi South 3.5 mph - N/A   Clear
1:15 AM 66.2 °F 53.6 °F 64% 30.00 in 10.0 mi Calm Calm - N/A   Clear
1:35 AM 66.2 °F 51.8 °F 60% 30.00 in 10.0 mi SSW 3.5 mph - N/A   Clear
1:55 AM 66.2 °F 51.8 °F 60% 30.00 in 10.0 mi Calm Calm - N/A   Clear
2:15 AM 64.4 °F 53.6 °F 68% 30.00 in 10.0 mi Calm Calm - N/A   Clear
2:35 AM 64.4 °F 53.6 °F 68% 30.00 in 10.0 mi SSW 3.5 mph - N/A   Clear
2:55 AM 64.4 °F 53.6 °F 68% 29.99 in 10.0 mi South 3.5 mph - N/A   Clear
3:15 AM 66.2 °F 51.8 °F 60% 29.99 in 10.0 mi South 3.5 mph - N/A   Clear
3:35 AM 64.4 °F 51.8 °F 64% 29.99 in 10.0 mi South 3.5 mph - N/A   Clear
3:55 AM 64.4 °F 53.6 °F 68% 29.98 in 10.0 mi Calm Calm - N/A   Clear
4:15 AM 64.4 °F 51.8 °F 64% 29.98 in 10.0 mi South 3.5 mph - N/A   Clear
4:35 AM 64.4 °F 51.8 °F 64% 29.98 in 10.0 mi South 4.6 mph - N/A   Clear
4:55 AM 64.4 °F 53.6 °F 68% 29.98 in 10.0 mi Calm Calm - N/A   Clear
5:15 AM 62.6 °F 53.6 °F 72% 29.98 in 10.0 mi SSW 3.5 mph - N/A   Clear
5:35 AM 62.6 °F 53.6 °F 72% 29.99 in 10.0 mi Calm Calm - N/A   Clear
5:55 AM 62.6 °F 51.8 °F 68% 30.00 in 10.0 mi South 3.5 mph - N/A   Clear
6:15 AM 62.6 °F 51.8 °F 68% 30.00 in 10.0 mi South 4.6 mph - N/A   Clear
6:35 AM 62.6 °F 51.8 °F 68% 30.00 in 10.0 mi South 3.5 mph - N/A   Clear
6:55 AM 62.6 °F 51.8 °F 68% 30.00 in 10.0 mi South 6.9 mph - N/A   Clear
7:15 AM 62.6 °F 51.8 °F 68% 30.01 in 10.0 mi South 4.6 mph - N/A   Clear
7:35 AM 62.6 °F 51.8 °F 68% 30.00 in 10.0 mi South 5.8 mph - N/A   Clear
7:55 AM 62.6 °F 51.8 °F 68% 30.00 in 10.0 mi South 4.6 mph - N/A   Clear
8:15 AM 64.4 °F 51.8 °F 64% 30.01 in 10.0 mi South 3.5 mph - N/A   Clear
8:35 AM 64.4 °F 53.6 °F 68% 30.02 in 10.0 mi South 4.6 mph - N/A   Clear
8:55 AM 66.2 °F 51.8 °F 60% 30.02 in 10.0 mi SSE 4.6 mph - N/A   Clear
9:15 AM 68.0 °F 53.6 °F 60% 30.03 in 10.0 mi SSE 5.8 mph - N/A   Clear
9:35 AM 68.0 °F 53.6 °F 60% 30.03 in 10.0 mi South 6.9 mph - N/A   Clear
9:55 AM 69.8 °F 53.6 °F 56% 30.04 in 10.0 mi SSE 4.6 mph - N/A   Clear
10:15 AM 69.8 °F 53.6 °F 56% 30.05 in 10.0 mi SSE 5.8 mph - N/A   Clear
10:35 AM 71.6 °F 53.6 °F 53% 30.05 in 10.0 mi SSE 8.1 mph - N/A   Clear
10:55 AM 73.4 °F 53.6 °F 50% 30.05 in 10.0 mi SSE 6.9 mph - N/A   Clear
11:15 AM 73.4 °F 53.6 °F 50% 30.05 in 10.0 mi SE 5.8 mph - N/A   Clear
11:35 AM 75.2 °F 53.6 °F 47% 30.05 in 10.0 mi SSE 5.8 mph - N/A   Clear
11:55 AM 77.0 °F 51.8 °F 41% 30.04 in 10.0 mi SSW 9.2 mph - N/A   Clear
12:15 PM 77.0 °F 51.8 °F 41% 30.03 in 10.0 mi South 9.2 mph - N/A   Clear
12:35 PM 77.0 °F 51.8 °F 41% 30.03 in 10.0 mi SSE 8.1 mph - N/A   Clear
12:55 PM 78.8 °F 50.0 °F 36% 30.02 in 10.0 mi South 8.1 mph - N/A   Clear
1:15 PM 78.8 °F 50.0 °F 36% 30.02 in 10.0 mi South 9.2 mph - N/A   Clear
1:35 PM 80.6 °F 50.0 °F 34% 30.00 in 10.0 mi SSW 5.8 mph - N/A   Clear
1:55 PM 80.6 °F 50.0 °F 34% 30.00 in 10.0 mi SSE 5.8 mph - N/A   Clear
2:15 PM 80.6 °F 50.0 °F 34% 29.99 in 10.0 mi SE 11.5 mph 16.1 mph N/A   Clear
2:35 PM 80.6 °F 50.0 °F 34% 29.98 in 10.0 mi ESE 6.9 mph 16.1 mph N/A   Clear
2:55 PM 82.4 °F 50.0 °F 32% 29.98 in 10.0 mi SE 4.6 mph - N/A   Clear
3:15 PM 82.4 °F 50.0 °F 32% 29.97 in 10.0 mi SE 11.5 mph 16.1 mph N/A   Clear
3:35 PM 80.6 °F 50.0 °F 34% 29.97 in 10.0 mi SE 8.1 mph 16.1 mph N/A   Clear
3:55 PM 82.4 °F 51.8 °F 35% 29.97 in 10.0 mi South 9.2 mph - N/A   Clear
4:15 PM 82.4 °F 51.8 °F 35% 29.97 in 10.0 mi South 10.4 mph - N/A   Clear
4:35 PM 82.4 °F 50.0 °F 32% 29.97 in 10.0 mi South 5.8 mph 17.3 mph N/A   Clear
4:55 PM 82.4 °F 51.8 °F 35% 29.97 in 10.0 mi SSE 8.1 mph - N/A   Clear
5:15 PM 82.4 °F 51.8 °F 35% 29.98 in 10.0 mi SSE 8.1 mph 17.3 mph N/A   Clear
5:35 PM 80.6 °F 51.8 °F 37% 29.98 in 10.0 mi South 9.2 mph - N/A   Clear
5:55 PM 80.6 °F 50.0 °F 34% 29.98 in 10.0 mi South 8.1 mph - N/A   Clear
6:15 PM 80.6 °F 51.8 °F 37% 29.98 in 10.0 mi SSE 5.8 mph - N/A   Clear
6:35 PM 78.8 °F 51.8 °F 39% 29.98 in 10.0 mi SSE 6.9 mph - N/A   Clear
6:55 PM 78.8 °F 53.6 °F 42% 29.99 in 10.0 mi SSE 4.6 mph - N/A   Clear
7:15 PM 77.0 °F 53.6 °F 44% 29.99 in 10.0 mi SE 5.8 mph - N/A   Clear
7:35 PM 75.2 °F 53.6 °F 47% 30.00 in 10.0 mi SE 5.8 mph - N/A   Clear
7:55 PM 73.4 °F 55.4 °F 53% 30.00 in 10.0 mi SE 3.5 mph - N/A   Clear
8:15 PM 73.4 °F 53.6 °F 50% 30.00 in 10.0 mi SE 4.6 mph - N/A   Clear
8:35 PM 73.4 °F 53.6 °F 50% 30.00 in 10.0 mi ESE 4.6 mph - N/A   Clear
8:55 PM 73.4 °F 53.6 °F 50% 30.01 in 10.0 mi SE 4.6 mph - N/A   Clear
9:15 PM 73.4 °F 55.4 °F 53% 30.01 in 10.0 mi SE 5.8 mph - N/A   Clear
9:35 PM 73.4 °F 55.4 °F 53% 30.02 in 10.0 mi SE 5.8 mph - N/A   Clear
10:15 PM 73.4 °F 55.4 °F 53% 30.03 in 10.0 mi SE 8.1 mph - N/A   Clear
10:35 PM 71.6 °F 57.2 °F 60% 30.03 in 10.0 mi SE 9.2 mph 18.4 mph N/A   Clear
10:55 PM 71.6 °F 57.2 °F 60% 30.03 in 10.0 mi SE 10.4 mph 16.1 mph N/A   Clear
11:15 PM 71.6 °F 59.0 °F 64% 30.04 in 10.0 mi SSE 8.1 mph - N/A   Clear
11:35 PM 69.8 °F 59.0 °F 68% 30.04 in 10.0 mi SSE 8.1 mph - N/A   Clear
11:55 PM 69.8 °F 59.0 °F 68% 30.04 in 10.0 mi SSE 8.1 mph 16.1 mph N/A   Clear